This is the latest recevied weather packets stored in our database for station/object KC4JES. If no packets are shown the sender has not sent any weather packets the latest 10 day(s).
| Time | Temp. | Humidity | Pressure | Rain* | Wind** | Luminosity | Snow |
|---|---|---|---|---|---|---|---|
| 1777853552 | 18.89° C | 63% | 1018.5 hPa | 0 mm | - | 1 W/m² | - |
| 1777853248 | 18.89° C | 63% | 1018.6 hPa | 0 mm | - | 1 W/m² | - |
| 1777852945 | 19.44° C | 65% | 1018.4 hPa | 0 mm | - | 2 W/m² | - |
| 1777852644 | 19.44° C | 61% | 1018.4 hPa | 0 mm | - | 4 W/m² | - |
| 1777852340 | 19.44° C | 62% | 1018.7 hPa | 0 mm | - | 6 W/m² | - |
| 1777852038 | 20° C | 60% | 1018.4 hPa | 0 mm | - | 8 W/m² | - |
| 1777851736 | 20° C | 63% | 1018.6 hPa | 0 mm | - | 10 W/m² | - |
| 1777851433 | 20° C | 61% | 1018.6 hPa | 0 mm | - | 14 W/m² | - |
| 1777851128 | 20° C | 59% | 1018.2 hPa | 0 mm | - | 17 W/m² | - |
| 1777850825 | 20° C | 60% | 1018.3 hPa | 0 mm | - | 21 W/m² | - |
| 1777850522 | 20° C | 58% | 1018.3 hPa | 0 mm | - | 24 W/m² | - |
| 1777850221 | 20.56° C | 59% | 1018.2 hPa | 0 mm | - | 26 W/m² | - |
| 1777849917 | 20.56° C | 59% | 1018.1 hPa | 0 mm | - | 28 W/m² | - |
| 1777849614 | 20.56° C | 59% | 1018.2 hPa | 0 mm | - | 28 W/m² | - |
| 1777849311 | 20.56° C | 57% | 1018.3 hPa | 0 mm | - | 22 W/m² | - |
| 1777849008 | 20.56° C | 57% | 1018.2 hPa | 0 mm | - | 16 W/m² | - |
| 1777848708 | 21.11° C | 57% | 1018.4 hPa | 0 mm | - | 22 W/m² | - |
| 1777848405 | 21.11° C | 57% | 1018.2 hPa | 0 mm | - | 25 W/m² | - |
| 1777848103 | 21.11° C | 56% | 1018.4 hPa | 0 mm | - | 26 W/m² | - |
| 1777847801 | 21.11° C | 57% | 1018.4 hPa | 0 mm | - | 28 W/m² | - |
| 1777847497 | 21.11° C | 56% | 1018.2 hPa | 0 mm | - | 29 W/m² | - |
| 1777847195 | 21.11° C | 55% | 1018.1 hPa | 0 mm | - | 36 W/m² | - |
| 1777846892 | 21.67° C | 56% | 1018.3 hPa | 0 mm | - | 68 W/m² | - |
| 1777846591 | 21.67° C | 54% | 1018 hPa | 0 mm | - | 40 W/m² | - |
| 1777846288 | 21.67° C | 54% | 1018.3 hPa | 0 mm | - | 47 W/m² | - |
* Rain latest hour (hover to see other rain measurements)
** Current wind speed in m/s (hover to see current wind gust speed)